STARLINK-4455 (53500 NORAD) Tracking and Keplerian Element Data

This shows tracking and keplerian element data for the satellite.

Feedback or suggestion? Click here.




ElementValue
Catalog53500
NameSTARLINK-4455
Epoch Orbit1553
Epoch Day325.27117208
Epoch Year2022
RAAN84.3361
Inclination97.6565
Eccentricity0.0003199
Argument of Perigee10.8347
Mean Anonmoly349.2946
Mean Motion15.01258197
Decay Rate1.907E-05
L11 53500U 22099AM 22325.27117208 .00001907 00000+0 15304-3 0 9999
L22 53500 97.6565 84.3361 0003199 10.8347 349.2946 15.01258197 15533



Live tracking and technical data element details for STARLINK-4455 (NORAD 53500). STARLINK-4455 can be tracked NOW for your location showing map with azimuth and elevation plus other details from your city location.







IsCatalogInMostPopularTable: catalog: 53500, numindb: 8
Update: records affected: 1



GetName: 53500 STARLINK-4455

Hit Count: updated at: Thu, 08 Dec 2022 20:37:53 GMT